This is the latest recevied weather packets stored in our database for station/object W6TKD-13. If no packets are shown the sender has not sent any weather packets the latest 10 day(s).
| Time | Temp. | Humidity | Pressure | Rain* | Wind** | Luminosity | Snow |
|---|---|---|---|---|---|---|---|
| 1777746534 | 27.78° C | 44% | 1012.7 hPa | 0 mm | - | - | - |
| 1777745866 | 27.78° C | 44% | 1012.7 hPa | 0 mm | - | - | - |
| 1777745200 | 27.78° C | 44% | 1012.6 hPa | 0 mm | - | - | - |
| 1777744533 | 27.22° C | 45% | 1012.5 hPa | 0 mm | - | - | - |
| 1777743199 | 26.67° C | 44% | 1012.5 hPa | 0 mm | - | - | - |
| 1777742532 | 27.78° C | 43% | 1012.4 hPa | 0 mm | - | - | - |
| 1777741865 | 28.33° C | 44% | 1012.5 hPa | 0 mm | - | - | - |
| 1777741197 | 28.33° C | 44% | 1012.5 hPa | 0 mm | - | - | - |
| 1777740530 | 27.22° C | 45% | 1012.5 hPa | 0 mm | - | - | - |
| 1777739863 | 26.11° C | 46% | 1012.5 hPa | 0 mm | - | - | - |
| 1777739196 | 25.56° C | 48% | 1012.6 hPa | 0 mm | - | - | - |
| 1777738529 | 23.89° C | 50% | 1012.6 hPa | 0 mm | - | - | - |
| 1777737862 | 21.67° C | 51% | 1012.7 hPa | 0 mm | - | - | - |
| 1777737196 | 20.56° C | 53% | 1012.7 hPa | 0 mm | - | - | - |
| 1777736535 | 18.33° C | 54% | 1012.7 hPa | 0 mm | - | - | - |
| 1777735195 | 16.11° C | 55% | 1012.7 hPa | 0 mm | - | - | - |
| 1777734529 | 15° C | 55% | 1012.7 hPa | 0 mm | - | - | - |
| 1777733860 | 13.89° C | 56% | 1012.7 hPa | 0 mm | - | - | - |
| 1777733193 | 13.33° C | 56% | 1012.8 hPa | 0 mm | - | - | - |
| 1777732526 | 12.78° C | 55% | 1012.8 hPa | 0 mm | - | - | - |
| 1777731859 | 12.22° C | 55% | 1012.6 hPa | 0 mm | - | - | - |
| 1777731193 | 11.67° C | 55% | 1012.7 hPa | 0 mm | - | - | - |
| 1777730526 | 11.67° C | 55% | 1012.5 hPa | 0 mm | - | - | - |
| 1777729860 | 11.11° C | 54% | 1012.4 hPa | 0 mm | - | - | - |
| 1777729191 | 11.11° C | 54% | 1012.3 hPa | 0 mm | - | - | - |
* Rain since midnight (hover to see other rain measurements)
** Current wind speed in m/s (hover to see current wind gust speed)